Kiana, AK

9:35 PM AKST on November 21, 2017 (GMT -0900)
Baker Memorial

Weather History for PAIK - October, 2012

Change the Weather History Date:

Friday, October 12, 2012

  Actual Average (PASK) Record (PASK)
Temperature  
Mean Temperature 28 °F -  
Max Temperature 27 °F 26 °F 39 °F (2013)
Min Temperature 21 °F 18 °F 3 °F (1996)
Degree Days  
Heating Degree Days 38    
Moisture  
Dew Point 17 °F    
Average Humidity 67    
Maximum Humidity 85    
Minimum Humidity 44    
Precipitation  
Precipitation 0.00 in - - ()
Sea Level Pressure  
Sea Level Pressure 30.01 in    
Wind  
Wind Speed 8 mph (NNW)    
Max Wind Speed 15 mph    
Max Gust Speed 21 mph    
Visibility 10 miles    
Events      
Averages and records for this station are not official NWS values.
T = Trace of Precipitation, MM = Missing Value Source: NWS Daily Summary

Daily Weather History Graph

Daily Weather History Graph

Search for Another Location

Airport or City:

Trip Planner

Search our weather history database for the weather conditions in past years. The results will help you decide how hot, cold, wet, or windy it might be!

Date:

Astronomy

Oct. 12, 2012 Rise Set
Actual Time 9:33 AM AKDT 7:20 PM AKDT
Civil Twilight 8:39 AM AKDT 8:14 PM AKDT
Nautical Twilight 7:37 AM AKDT 9:16 PM AKDT
Astronomical Twilight 6:33 AM AKDT 10:19 PM AKDT
Moon 5:26 AM AKDT (10/12) 6:24 PM AKDT (10/12)
Length of Visible Light 11h 35m
Length of Day
9h 47m
Waning Crescent, 10% of the Moon is Illuminated
Oct 12
Waning Crescent
Oct 15
New
Oct 21
First Quarter
Oct 29
Full
Nov 6
Last Quarter

Hourly Weather History & Observations

Time (AKDT) Temp. Windchill Dew Point Humidity Pressure Visibility Wind Dir Wind Speed Gust Speed Precip Events Conditions
12:01 AM 25.0 °F 19.3 °F 19.9 °F 81% 30.08 in 10.0 mi WNW 4.6 mph - N/A   Mostly Cloudy
1:01 AM 24.1 °F 16.0 °F 19.0 °F 81% 30.07 in 10.0 mi NNW 6.9 mph - N/A   Scattered Clouds
2:01 AM 26.1 °F 17.6 °F 21.0 °F 81% 30.07 in 10.0 mi NNW 8.1 mph - N/A   Mostly Cloudy
3:01 AM 23.0 °F 13.1 °F 19.0 °F 85% 30.06 in 10.0 mi NNW 9.2 mph - N/A   Clear
4:01 AM 23.0 °F 11.7 °F 18.0 °F 81% 30.05 in 10.0 mi North 11.5 mph - N/A   Clear
5:01 AM 23.0 °F 13.1 °F 17.1 °F 78% 30.04 in 10.0 mi NNW 9.2 mph - N/A   Scattered Clouds
6:01 AM 23.0 °F 13.9 °F 17.1 °F 78% 30.02 in 10.0 mi NNW 8.1 mph - N/A   Clear
7:01 AM 21.9 °F 11.7 °F 16.0 °F 78% 30.02 in 10.0 mi NNW 9.2 mph - N/A   Clear
8:01 AM 21.9 °F 11.0 °F 16.0 °F 78% 30.00 in 10.0 mi NNW 10.4 mph - N/A   Clear
9:01 AM 21.9 °F 11.0 °F 16.0 °F 78% 30.01 in 10.0 mi NNW 10.4 mph - N/A   Clear
10:01 AM 21.9 °F 17.2 °F 16.0 °F 78% 30.01 in 10.0 mi West 3.5 mph - N/A   Clear
11:01 AM 25.0 °F 17.1 °F 17.1 °F 72% 30.01 in 10.0 mi North 6.9 mph - N/A   Clear
12:01 PM 30.0 °F 26.5 °F 19.0 °F 64% 30.01 in 10.0 mi Variable 3.5 mph - N/A   Clear
1:01 PM 32.0 °F 21.6 °F 15.1 °F 50% 30.01 in 10.0 mi NNE 15.0 mph 19.6 mph N/A   Clear
2:01 PM 34.0 °F 27.2 °F 14.0 °F 44% 30.00 in 10.0 mi North 8.1 mph - N/A   Partly Cloudy
3:01 PM 34.0 °F 28.8 °F 14.0 °F 44% 29.99 in 10.0 mi Variable 5.8 mph - N/A   Clear
4:01 PM 34.0 °F 25.5 °F 14.0 °F 44% 29.98 in 10.0 mi NNE 11.5 mph 17.3 mph N/A   Clear
5:01 PM 33.1 °F 26.1 °F 15.1 °F 48% 29.97 in 10.0 mi North 8.1 mph - N/A   Clear
6:01 PM 30.9 °F 21.7 °F 17.1 °F 57% 29.97 in 10.0 mi North 11.5 mph 20.7 mph N/A   Clear
7:01 PM 30.0 °F 21.7 °F 17.1 °F 59% 29.96 in 10.0 mi NNW 9.2 mph - N/A   Clear
8:01 PM 28.0 °F 18.1 °F 18.0 °F 66% 29.96 in 10.0 mi NNW 11.5 mph 17.3 mph N/A   Clear
9:01 PM 27.0 °F 18.7 °F 17.1 °F 66% 29.96 in 10.0 mi North 8.1 mph - N/A   Clear
10:01 PM 28.0 °F 24.2 °F 16.0 °F 61% 29.95 in 10.0 mi North 3.5 mph - N/A   Clear
11:01 PM 28.0 °F 18.1 °F 16.0 °F 61% 29.96 in 10.0 mi NNE 11.5 mph - N/A   Clear